KB0UOA Weather Reports


Display with metric or nautical units.
time (UTC)temp
F
wind
direction
speed
MPH
gust
MPH
rain 1hr
in
rain 24hr
in
rain mn
in
humidity
%
barometer
mb
20260504082004 66 167 3.0 9.0 0.00 0.00 0.00 50 1007.2
20260504081904 66 164 3.0 9.0 0.00 0.00 0.00 50 1007.2
20260504081705 66 168 3.0 9.0 0.00 0.00 0.00 50 1007.2
20260504081605 66 166 3.0 9.0 0.00 0.00 0.00 49 1007.2
20260504081505 66 166 3.0 9.0 0.00 0.00 0.00 50 1007.2
20260504081405 66 169 3.0 11.0 0.00 0.00 0.00 50 1007.2
20260504081305 66 171 3.0 11.0 0.00 0.00 0.00 49 1007.2
20260504081205 66 171 3.0 11.0 0.00 0.00 0.00 50 1007.3
20260504081105 66 169 3.0 11.0 0.00 0.00 0.00 49 1007.3
20260504081005 66 172 4.0 11.0 0.00 0.00 0.00 49 1007.3
20260504080904 66 173 4.0 11.0 0.00 0.00 0.00 49 1007.2
20260504080805 66 173 4.0 11.0 0.00 0.00 0.00 49 1007.3
20260504080704 66 174 4.0 11.0 0.00 0.00 0.00 49 1007.3
20260504080605 66 178 4.0 12.0 0.00 0.00 0.00 49 1007.3
20260504080505 66 178 4.0 12.0 0.00 0.00 0.00 49 1007.3
20260504080405 66 176 4.0 12.0 0.00 0.00 0.00 49 1007.3
20260504080304 66 172 4.0 12.0 0.00 0.00 0.00 49 1007.3
20260504080205 66 172 4.0 12.0 0.00 0.00 0.00 49 1007.3
20260504080105 66 175 4.0 12.0 0.00 0.00 0.00 49 1007.4
20260504070405 68 179 5.0 13.0 0.00 0.00 0.00 46 1007.9
20260504070305 68 178 6.0 13.0 0.00 0.00 0.00 46 1007.9
20260504070205 68 185 6.0 16.0 0.00 0.00 0.00 46 1007.9
20260504070105 68 186 6.0 16.0 0.00 0.00 0.00 46 1007.9
20260504060204 70 192 6.0 20.0 0.00 0.00 0.00 44 1008.2
20260504050704 71 181 5.0 16.0 0.00 0.00 0.00 42 1008.2
20260504050604 71 178 5.0 16.0 0.00 0.00 0.00 42 1008.2
20260504050504 71 181 6.0 14.0 0.00 0.00 0.00 42 1008.2
20260504050404 71 181 6.0 14.0 0.00 0.00 0.00 42 1008.2
20260504050304 71 181 6.0 14.0 0.00 0.00 0.00 42 1008.2
20260504050105 71 179 6.0 15.0 0.00 0.00 0.00 42 1008.2
20260504045705 71 181 6.0 17.0 0.00 0.00 0.00 41 1008.2
20260504045604 71 184 6.0 17.0 0.00 0.00 0.00 41 1008.3
20260504045504 71 185 6.0 17.0 0.00 0.00 0.00 41 1008.3
20260504045404 71 184 6.0 17.0 0.00 0.00 0.00 41 1008.2
20260504045304 71 183 6.0 17.0 0.00 0.00 0.00 41 1008.2
20260504045104 71 181 6.0 17.0 0.00 0.00 0.00 41 1008.1
20260504045005 71 184 7.0 17.0 0.00 0.00 0.00 41 1008.2
20260504044905 71 187 7.0 17.0 0.00 0.00 0.00 41 1008.2
20260504044805 71 184 7.0 16.0 0.00 0.00 0.00 40 1008.2
20260504044705 71 186 7.0 16.0 0.00 0.00 0.00 40 1008.2
20260504044604 71 185 7.0 16.0 0.00 0.00 0.00 40 1008.2
20260504044505 71 185 7.0 16.0 0.00 0.00 0.00 40 1008.2
20260504044404 71 184 7.0 16.0 0.00 0.00 0.00 40 1008.2
20260504044305 71 185 7.0 16.0 0.00 0.00 0.00 40 1008.2
20260504044205 71 185 6.0 16.0 0.00 0.00 0.00 40 1008.2
20260504044105 71 184 6.0 16.0 0.00 0.00 0.00 40 1008.2
20260504043904 71 179 6.0 16.0 0.00 0.00 0.00 40 1008.2
20260504043804 71 182 6.0 16.0 0.00 0.00 0.00 40 1008.2
20260504043705 71 179 6.0 13.0 0.00 0.00 0.00 40 1008.2
20260504043505 71 178 6.0 15.0 0.00 0.00 0.00 40 1008.2
20260504043305 71 181 6.0 17.0 0.00 0.00 0.00 39 1008.2
20260504043204 71 181 6.0 17.0 0.00 0.00 0.00 39 1008.2
20260504043004 71 183 6.0 17.0 0.00 0.00 0.00 39 1008.2
20260504042904 71 183 6.0 17.0 0.00 0.00 0.00 39 1008.2
20260504042805 71 182 6.0 17.0 0.00 0.00 0.00 39 1008.2
20260504042705 71 182 6.0 17.0 0.00 0.00 0.00 39 1008.2
20260504042604 71 181 5.0 17.0 0.00 0.00 0.00 39 1008.1
20260504042504 71 181 5.0 17.0 0.00 0.00 0.00 39 1008.2
20260504042404 71 179 5.0 17.0 0.00 0.00 0.00 39 1008.2
20260504042204 71 177 5.0 13.0 0.00 0.00 0.00 39 1008.1
20260504042105 71 178 5.0 13.0 0.00 0.00 0.00 39 1008.2
20260504041905 71 173 4.0 13.0 0.00 0.00 0.00 39 1008.2
20260504041805 71 171 4.0 13.0 0.00 0.00 0.00 39 1008.2
20260504041705 71 171 4.0 13.0 0.00 0.00 0.00 39 1008.2
20260504041504 70 170 4.0 13.0 0.00 0.00 0.00 39 1008.3
20260504041404 70 170 4.0 11.0 0.00 0.00 0.00 39 1008.3
20260504041305 70 169 5.0 11.0 0.00 0.00 0.00 39 1008.2
20260504041205 70 175 4.0 14.0 0.00 0.00 0.00 39 1008.2
20260504041105 70 171 4.0 14.0 0.00 0.00 0.00 39 1008.3
20260504041004 70 172 4.0 14.0 0.00 0.00 0.00 39 1008.3
20260504040804 70 171 4.0 14.0 0.00 0.00 0.00 39 1008.3
20260504040704 70 171 4.0 14.0 0.00 0.00 0.00 39 1008.3
20260504040604 70 166 4.0 14.0 0.00 0.00 0.00 39 1008.3
20260504040505 70 170 4.0 14.0 0.00 0.00 0.00 39 1008.3
20260504040405 70 168 3.0 14.0 0.00 0.00 0.00 39 1008.3
20260504040305 70 170 3.0 14.0 0.00 0.00 0.00 39 1008.3
20260504040204 70 162 3.0 11.0 0.00 0.00 0.00 39 1008.3
20260504040104 70 163 3.0 11.0 0.00 0.00 0.00 39 1008.4
20260504035904 70 165 3.0 11.0 0.00 0.00 0.00 39 1008.3
20260504035804 70 164 3.0 11.0 0.00 0.00 0.00 39 1008.3
20260504035704 70 163 3.0 11.0 0.00 0.00 0.00 39 1008.3
20260504035605 70 164 3.0 11.0 0.00 0.00 0.00 39 1008.3
20260504035505 70 160 3.0 9.0 0.00 0.00 0.00 39 1008.3
20260504035405 70 159 3.0 9.0 0.00 0.00 0.00 39 1008.3
20260504035305 70 161 3.0 9.0 0.00 0.00 0.00 39 1008.3
20260504035204 70 165 3.0 9.0 0.00 0.00 0.00 39 1008.3
20260504035105 70 164 3.0 9.0 0.00 0.00 0.00 39 1008.3
20260504035004 70 162 3.0 9.0 0.00 0.00 0.00 38 1008.3
20260504034904 70 165 3.0 9.0 0.00 0.00 0.00 38 1008.3
20260504034804 70 165 3.0 9.0 0.00 0.00 0.00 39 1008.3
20260504034704 70 167 3.0 9.0 0.00 0.00 0.00 39 1008.3
20260504034605 70 168 3.0 9.0 0.00 0.00 0.00 38 1008.3
20260504034505 70 169 3.0 9.0 0.00 0.00 0.00 38 1008.4
20260504034405 70 170 3.0 9.0 0.00 0.00 0.00 38 1008.4
20260504034304 70 166 3.0 9.0 0.00 0.00 0.00 38 1008.4
20260504034204 70 162 3.0 6.0 0.00 0.00 0.00 38 1008.4
20260504034104 71 163 3.0 7.0 0.00 0.00 0.00 38 1008.4
20260504034004 71 165 3.0 7.0 0.00 0.00 0.00 38 1008.3
20260504033904 70 162 3.0 7.0 0.00 0.00 0.00 38 1008.4
20260504033805 71 163 3.0 7.0 0.00 0.00 0.00 38 1008.4
20260504033705 71 162 2.0 7.0 0.00 0.00 0.00 38 1008.4
20260504033605 71 160 2.0 7.0 0.00 0.00 0.00 38 1008.3
20260504033505 71 160 2.0 7.0 0.00 0.00 0.00 38 1008.3
20260504033404 70 159 2.0 7.0 0.00 0.00 0.00 38 1008.4
20260504033304 70 162 2.0 7.0 0.00 0.00 0.00 38 1008.3
20260504033204 71 160 2.0 7.0 0.00 0.00 0.00 38 1008.4
20260504033004 71 158 2.0 6.0 0.00 0.00 0.00 38 1008.3
20260504032905 71 155 2.0 6.0 0.00 0.00 0.00 38 1008.4
20260504032805 71 156 2.0 7.0 0.00 0.00 0.00 38 1008.4
20260504032704 71 160 2.0 7.0 0.00 0.00 0.00 37 1008.3
20260504032604 71 160 2.0 7.0 0.00 0.00 0.00 37 1008.3
20260504032504 71 158 2.0 7.0 0.00 0.00 0.00 37 1008.3
20260504032404 71 159 2.0 7.0 0.00 0.00 0.00 37 1008.3
20260504032204 71 158 2.0 9.0 0.00 0.00 0.00 37 1008.3
20260504032105 71 158 2.0 9.0 0.00 0.00 0.00 37 1008.3
20260504031905 71 162 2.0 9.0 0.00 0.00 0.00 36 1008.3
20260504031805 71 162 2.0 9.0 0.00 0.00 0.00 37 1008.3
20260504031704 71 159 2.0 9.0 0.00 0.00 0.00 36 1008.3
20260504031504 71 160 2.0 9.0 0.00 0.00 0.00 36 1008.3
20260504031404 71 157 2.0 9.0 0.00 0.00 0.00 36 1008.2
20260504031204 72 160 2.0 5.0 0.00 0.00 0.00 36 1008.2
20260504031104 72 159 2.0 5.0 0.00 0.00 0.00 36 1008.2
20260504031004 72 159 2.0 5.0 0.00 0.00 0.00 36 1008.1
20260504030905 72 156 2.0 5.0 0.00 0.00 0.00 36 1008.2
20260504030805 72 157 2.0 6.0 0.00 0.00 0.00 36 1008.2
20260504030704 72 156 2.0 6.0 0.00 0.00 0.00 36 1008.1
20260504030604 72 156 2.0 6.0 0.00 0.00 0.00 35 1008.1
20260504030504 72 157 2.0 6.0 0.00 0.00 0.00 35 1008.0
20260504030404 72 160 2.0 6.0 0.00 0.00 0.00 35 1008.0
20260504030204 72 155 2.0 6.0 0.00 0.00 0.00 36 1007.9
20260504025905 73 160 2.0 10.0 0.00 0.00 0.00 35 1007.9
20260504025805 73 159 2.0 10.0 0.00 0.00 0.00 35 1007.9
20260504025705 73 159 3.0 10.0 0.00 0.00 0.00 35 1007.9
20260504025604 73 159 3.0 10.0 0.00 0.00 0.00 35 1007.9
20260504025505 73 159 3.0 10.0 0.00 0.00 0.00 35 1007.9
20260504025404 73 157 3.0 10.0 0.00 0.00 0.00 34 1007.9
20260504025204 73 163 3.0 10.0 0.00 0.00 0.00 35 1007.9
20260504025104 73 159 3.0 8.0 0.00 0.00 0.00 34 1007.9
20260504025005 73 159 3.0 8.0 0.00 0.00 0.00 34 1007.9
20260504024905 73 162 3.0 8.0 0.00 0.00 0.00 35 1007.9
20260504024704 74 161 3.0 8.0 0.00 0.00 0.00 34 1007.9
20260504024604 74 163 3.0 8.0 0.00 0.00 0.00 34 1007.9
20260504024504 74 164 3.0 9.0 0.00 0.00 0.00 34 1007.9
20260504024404 74 169 3.0 9.0 0.00 0.00 0.00 34 1007.8
20260504024304 74 169 3.0 10.0 0.00 0.00 0.00 34 1007.9
20260504024204 74 167 4.0 10.0 0.00 0.00 0.00 34 1007.9
20260504024105 74 167 4.0 10.0 0.00 0.00 0.00 34 1007.9
20260504023904 74 168 4.0 10.0 0.00 0.00 0.00 34 1007.8
20260504023804 74 171 4.0 10.0 0.00 0.00 0.00 33 1007.8
20260504023704 74 173 4.0 10.0 0.00 0.00 0.00 33 1007.8
20260504023604 74 173 4.0 10.0 0.00 0.00 0.00 34 1007.8
20260504023505 74 173 3.0 13.0 0.00 0.00 0.00 33 1007.8
20260504023204 74 169 3.0 13.0 0.00 0.00 0.00 33 1007.9
20260504023104 74 171 3.0 13.0 0.00 0.00 0.00 33 1007.9
20260504023004 74 172 3.0 13.0 0.00 0.00 0.00 33 1007.9
20260504022904 74 172 3.0 13.0 0.00 0.00 0.00 33 1007.9
20260504022804 74 171 3.0 13.0 0.00 0.00 0.00 33 1007.9
20260504022704 74 168 3.0 13.0 0.00 0.00 0.00 33 1007.9
20260504022605 74 168 3.0 13.0 0.00 0.00 0.00 34 1007.9
20260504022305 74 173 3.0 10.0 0.00 0.00 0.00 34 1007.9
20260504022204 74 173 3.0 10.0 0.00 0.00 0.00 34 1007.9
20260504022104 74 171 3.0 10.0 0.00 0.00 0.00 34 1007.9
20260504022004 74 169 3.0 10.0 0.00 0.00 0.00 33 1007.9
20260504021805 74 167 3.0 10.0 0.00 0.00 0.00 34 1007.9
20260504021705 74 167 3.0 10.0 0.00 0.00 0.00 34 1007.9
20260504021605 74 166 3.0 10.0 0.00 0.00 0.00 33 1007.9
20260504021404 74 164 2.0 9.0 0.00 0.00 0.00 33 1007.9
20260504021304 74 160 2.0 9.0 0.00 0.00 0.00 33 1007.9
20260504021204 74 160 2.0 9.0 0.00 0.00 0.00 34 1007.9
20260504021105 74 161 2.0 9.0 0.00 0.00 0.00 34 1007.9
20260504021005 74 163 2.0 9.0 0.00 0.00 0.00 33 1007.9
20260504020904 74 162 2.0 9.0 0.00 0.00 0.00 33 1007.9
20260504020804 74 162 2.0 9.0 0.00 0.00 0.00 33 1007.9
20260504020704 75 162 2.0 9.0 0.00 0.00 0.00 33 1007.9
20260504020404 75 161 2.0 6.0 0.00 0.00 0.00 33 1007.9
20260504020304 75 161 2.0 6.0 0.00 0.00 0.00 33 1007.9
20260504020105 75 161 2.0 6.0 0.00 0.00 0.00 32 1007.9
20260504020004 75 157 2.0 6.0 0.00 0.00 0.00 32 1007.9
20260504015904 75 159 2.0 6.0 0.00 0.00 0.00 33 1007.9
20260504015804 75 157 2.0 6.0 0.00 0.00 0.00 33 1008.0
20260504015705 75 158 2.0 6.0 0.00 0.00 0.00 33 1007.9
20260504015605 75 157 2.0 5.0 0.00 0.00 0.00 32 1007.9
20260504015505 75 157 2.0 5.0 0.00 0.00 0.00 32 1007.9
20260504015404 75 157 2.0 5.0 0.00 0.00 0.00 32 1007.9
20260504015305 75 160 2.0 6.0 0.00 0.00 0.00 32 1007.9
20260504015204 75 159 2.0 6.0 0.00 0.00 0.00 32 1007.9
20260504015104 76 158 2.0 6.0 0.00 0.00 0.00 32 1007.9
20260504015004 76 160 2.0 6.0 0.00 0.00 0.00 32 1007.8
20260504014805 76 161 2.0 6.0 0.00 0.00 0.00 31 1007.8
20260504014504 76 159 2.0 6.0 0.00 0.00 0.00 31 1007.8
20260504014104 76 154 2.0 6.0 0.00 0.00 0.00 31 1007.8
20260504013904 76 154 2.0 6.0 0.00 0.00 0.00 31 1007.8
20260504013704 76 156 2.0 6.0 0.00 0.00 0.00 31 1007.8
20260504013604 76 156 2.0 5.0 0.00 0.00 0.00 31 1007.8
20260504013304 77 165 2.0 6.0 0.00 0.00 0.00 30 1007.8
20260504013205 77 164 2.0 6.0 0.00 0.00 0.00 30 1007.8
20260504013105 77 163 2.0 6.0 0.00 0.00 0.00 30 1007.8
20260504013005 77 162 2.0 6.0 0.00 0.00 0.00 30 1007.8
20260504012904 77 162 2.0 6.0 0.00 0.00 0.00 30 1007.8
20260504012804 77 162 2.0 6.0 0.00 0.00 0.00 30 1007.8
20260504012705 77 162 2.0 6.0 0.00 0.00 0.00 30 1007.8
20260504012604 77 162 2.0 6.0 0.00 0.00 0.00 30 1007.8
20260504012504 77 158 2.0 6.0 0.00 0.00 0.00 30 1007.8
20260504012304 77 157 2.0 5.0 0.00 0.00 0.00 30 1007.8
20260504012205 78 161 2.0 6.0 0.00 0.00 0.00 29 1007.8
20260504012005 78 165 2.0 6.0 0.00 0.00 0.00 29 1007.8
20260504011804 78 165 3.0 6.0 0.00 0.00 0.00 29 1007.7
20260504011704 78 171 3.0 8.0 0.00 0.00 0.00 29 1007.7
20260504011604 78 172 3.0 8.0 0.00 0.00 0.00 29 1007.7
20260504011504 78 171 3.0 8.0 0.00 0.00 0.00 29 1007.7
20260504011305 78 175 3.0 12.0 0.00 0.00 0.00 28 1007.8
20260504011204 78 177 3.0 12.0 0.00 0.00 0.00 28 1007.7
20260504011104 78 177 3.0 12.0 0.00 0.00 0.00 28 1007.8
20260504011004 79 181 3.0 12.0 0.00 0.00 0.00 28 1007.8
20260504010904 79 181 3.0 12.0 0.00 0.00 0.00 28 1007.8
20260504010804 79 182 3.0 12.0 0.00 0.00 0.00 28 1007.8
20260504010705 79 179 3.0 12.0 0.00 0.00 0.00 28 1007.8
20260504010605 79 181 3.0 12.0 0.00 0.00 0.00 28 1007.9
20260504010504 79 181 3.0 12.0 0.00 0.00 0.00 28 1007.9
20260504010405 79 183 3.0 12.0 0.00 0.00 0.00 27 1007.9
20260504010305 79 183 3.0 9.0 0.00 0.00 0.00 28 1007.9
20260504010205 79 184 4.0 9.0 0.00 0.00 0.00 27 1007.9
20260504010005 79 184 4.0 10.0 0.00 0.00 0.00 28 1007.9
20260504005905 80 184 4.0 10.0 0.00 0.00 0.00 28 1007.8
20260504005805 80 186 4.0 11.0 0.00 0.00 0.00 27 1007.8
20260504005705 80 186 5.0 11.0 0.00 0.00 0.00 28 1007.8
20260504005505 80 190 5.0 11.0 0.00 0.00 0.00 27 1007.9
20260504005405 80 188 5.0 11.0 0.00 0.00 0.00 27 1007.9
20260504005305 80 189 5.0 11.0 0.00 0.00 0.00 27 1007.8
20260504005205 80 189 5.0 11.0 0.00 0.00 0.00 27 1007.9
20260504005105 80 188 4.0 11.0 0.00 0.00 0.00 27 1007.9
20260504005005 80 187 4.0 11.0 0.00 0.00 0.00 27 1007.8
20260504004704 80 189 3.0 9.0 0.00 0.00 0.00 27 1007.9
20260504004605 80 186 3.0 9.0 0.00 0.00 0.00 27 1008.0
20260504004505 80 188 3.0 10.0 0.00 0.00 0.00 26 1008.0
20260504004405 80 189 3.0 10.0 0.00 0.00 0.00 26 1008.0
20260504004305 81 187 3.0 10.0 0.00 0.00 0.00 27 1008.0
20260504004205 81 187 4.0 10.0 0.00 0.00 0.00 27 1008.0
20260504004005 81 189 4.0 10.0 0.00 0.00 0.00 26 1008.1
20260504003905 81 190 4.0 10.0 0.00 0.00 0.00 26 1008.0
20260504003805 81 190 4.0 10.0 0.00 0.00 0.00 26 1008.0
20260504003705 81 191 4.0 10.0 0.00 0.00 0.00 26 1008.1
20260504003605 81 191 4.0 10.0 0.00 0.00 0.00 26 1008.1
20260504003505 81 190 4.0 9.0 0.00 0.00 0.00 26 1008.1
20260504003405 81 189 4.0 9.0 0.00 0.00 0.00 26 1008.1
20260504003304 81 191 4.0 9.0 0.00 0.00 0.00 26 1008.1
20260504003205 81 192 4.0 9.0 0.00 0.00 0.00 25 1008.1
20260504003105 81 190 4.0 9.0 0.00 0.00 0.00 25 1008.1
20260504003005 81 189 4.0 9.0 0.00 0.00 0.00 26 1008.1
20260504002905 82 190 4.0 9.0 0.00 0.00 0.00 26 1008.1
20260504002805 81 188 4.0 9.0 0.00 0.00 0.00 25 1008.2
20260504002705 82 184 4.0 9.0 0.00 0.00 0.00 26 1008.2
20260504002604 81 184 4.0 9.0 0.00 0.00 0.00 26 1008.2
20260504002505 81 182 4.0 9.0 0.00 0.00 0.00 25 1008.2
20260504002205 81 181 4.0 10.0 0.00 0.00 0.00 26 1008.2
20260504002105 81 187 5.0 15.0 0.00 0.00 0.00 26 1008.2
20260504002005 82 192 5.0 15.0 0.00 0.00 0.00 26 1008.2
20260504001904 82 192 5.0 15.0 0.00 0.00 0.00 26 1008.2
20260504001805 82 194 6.0 15.0 0.00 0.00 0.00 26 1008.2
20260504001705 82 197 6.0 15.0 0.00 0.00 0.00 25 1008.2
20260504001605 82 197 6.0 15.0 0.00 0.00 0.00 25 1008.2
20260504001505 82 196 5.0 15.0 0.00 0.00 0.00 25 1008.2
20260504001405 82 195 6.0 15.0 0.00 0.00 0.00 25 1008.2
20260504001305 82 196 6.0 15.0 0.00 0.00 0.00 25 1008.2
20260504001204 82 198 5.0 15.0 0.00 0.00 0.00 25 1008.2
20260504001105 82 195 5.0 14.0 0.00 0.00 0.00 25 1008.3
20260504001005 82 190 5.0 13.0 0.00 0.00 0.00 25 1008.3
20260504000905 82 189 5.0 13.0 0.00 0.00 0.00 25 1008.3
20260504000805 82 187 4.0 13.0 0.00 0.00 0.00 25 1008.3
20260504000705 82 184 5.0 13.0 0.00 0.00 0.00 25 1008.4
20260504000605 82 185 5.0 13.0 0.00 0.00 0.00 25 1008.4
20260504000504 82 189 5.0 13.0 0.00 0.00 0.00 25 1008.4
20260504000205 82 192 5.0 13.0 0.00 0.00 0.00 25 1008.4
20260504000105 82 192 5.0 13.0 0.00 0.00 0.00 25 1008.4
20260504000005 82 194 5.0 13.0 0.00 0.00 0.00 25 1008.4
20260503235904 82 195 6.0 13.0 0.00 0.00 0.00 25 1008.4
20260503235805 82 196 6.0 13.0 0.00 0.00 0.00 24 1008.4
20260503235705 82 198 6.0 13.0 0.00 0.00 0.00 25 1008.4
20260503235505 82 194 6.0 14.0 0.00 0.00 0.00 25 1008.4
20260503235405 82 191 6.0 14.0 0.00 0.00 0.00 24 1008.5
20260503235305 82 193 5.0 14.0 0.00 0.00 0.00 25 1008.5
20260503235205 83 193 6.0 14.0 0.00 0.00 0.00 24 1008.5
20260503235005 83 196 6.0 14.0 0.00 0.00 0.00 24 1008.4
20260503234804 83 195 5.0 14.0 0.00 0.00 0.00 24 1008.4
20260503234705 83 193 5.0 14.0 0.00 0.00 0.00 24 1008.5
20260503234605 83 196 5.0 14.0 0.00 0.00 0.00 23 1008.4
20260503234505 83 198 5.0 12.0 0.00 0.00 0.00 24 1008.5
20260503234305 83 196 5.0 15.0 0.00 0.00 0.00 24 1008.5
20260503234104 83 192 5.0 15.0 0.00 0.00 0.00 24 1008.6
20260503234005 84 190 5.0 15.0 0.00 0.00 0.00 23 1008.5
20260503233905 84 191 5.0 15.0 0.00 0.00 0.00 23 1008.6
20260503233805 84 190 5.0 15.0 0.00 0.00 0.00 23 1008.5
20260503233605 84 188 5.0 15.0 0.00 0.00 0.00 23 1008.6
20260503233504 84 189 5.0 15.0 0.00 0.00 0.00 22 1008.6
20260503233404 84 191 5.0 15.0 0.00 0.00 0.00 24 1008.6
20260503233304 84 192 5.0 11.0 0.00 0.00 0.00 24 1008.6
20260503233205 84 192 5.0 12.0 0.00 0.00 0.00 24 1008.6
20260503232905 84 195 6.0 13.0 0.00 0.00 0.00 23 1008.6
20260503232805 84 195 6.0 13.0 0.00 0.00 0.00 23 1008.7
20260503232705 84 195 7.0 13.0 0.00 0.00 0.00 23 1008.6
20260503232605 84 194 6.0 13.0 0.00 0.00 0.00 23 1008.7
20260503232504 84 194 7.0 13.0 0.00 0.00 0.00 22 1008.7
20260503232404 84 193 7.0 18.0 0.00 0.00 0.00 23 1008.7
20260503232306 84 194 7.0 18.0 0.00 0.00 0.00 23 1008.7
20260503232205 84 194 6.0 18.0 0.00 0.00 0.00 22 1008.7
20260503232105 84 194 6.0 18.0 0.00 0.00 0.00 23 1008.8
20260503231905 84 197 6.0 18.0 0.00 0.00 0.00 23 1008.7
20260503231804 84 198 6.0 18.0 0.00 0.00 0.00 23 1008.7
20260503231704 84 200 6.0 18.0 0.00 0.00 0.00 23 1008.7
20260503231604 84 200 6.0 18.0 0.00 0.00 0.00 23 1008.7
20260503231504 84 200 5.0 18.0 0.00 0.00 0.00 23 1008.7
20260503231405 84 201 5.0 15.0 0.00 0.00 0.00 24 1008.6
20260503231305 85 200 6.0 16.0 0.00 0.00 0.00 23 1008.7
20260503231105 85 200 6.0 16.0 0.00 0.00 0.00 23 1008.7
20260503231005 85 201 6.0 17.0 0.00 0.00 0.00 23 1008.7
20260503230904 85 201 6.0 17.0 0.00 0.00 0.00 23 1008.8
20260503230805 85 205 6.0 17.0 0.00 0.00 0.00 23 1008.7
20260503230704 85 204 7.0 17.0 0.00 0.00 0.00 23 1008.8
20260503230505 85 207 7.0 17.0 0.00 0.00 0.00 23 1008.8
20260503230405 85 206 7.0 17.0 0.00 0.00 0.00 23 1008.8
20260503230305 85 205 6.0 17.0 0.00 0.00 0.00 23 1008.8
20260503230205 85 205 6.0 17.0 0.00 0.00 0.00 23 1008.8
20260503230105 85 203 6.0 17.0 0.00 0.00 0.00 22 1008.8
20260503225905 85 198 6.0 14.0 0.00 0.00 0.00 24 1008.8
20260503225804 85 194 6.0 14.0 0.00 0.00 0.00 23 1008.8
20260503225605 85 195 5.0 13.0 0.00 0.00 0.00 23 1008.9
20260503225505 85 197 6.0 13.0 0.00 0.00 0.00 23 1008.8
20260503225405 85 198 5.0 13.0 0.00 0.00 0.00 23 1008.8
20260503225305 85 198 6.0 13.0 0.00 0.00 0.00 23 1008.8
20260503225205 85 201 6.0 13.0 0.00 0.00 0.00 22 1008.8
20260503225104 85 203 6.0 13.0 0.00 0.00 0.00 23 1008.8
20260503225004 85 203 6.0 13.0 0.00 0.00 0.00 23 1008.8
20260503224805 85 199 6.0 14.0 0.00 0.00 0.00 22 1008.8
20260503224705 85 196 6.0 14.0 0.00 0.00 0.00 22 1008.8
20260503224505 85 196 6.0 14.0 0.00 0.00 0.00 21 1008.8
20260503224405 85 198 6.0 14.0 0.00 0.00 0.00 21 1008.9
20260503224305 85 199 6.0 14.0 0.00 0.00 0.00 21 1008.9
20260503224105 85 201 7.0 14.0 0.00 0.00 0.00 22 1008.9
20260503223904 85 207 6.0 14.0 0.00 0.00 0.00 21 1009.0
20260503223804 85 208 6.0 14.0 0.00 0.00 0.00 22 1009.0
20260503223704 85 207 7.0 14.0 0.00 0.00 0.00 21 1008.9
20260503223605 85 207 7.0 14.0 0.00 0.00 0.00 20 1008.9
20260503223505 85 207 7.0 14.0 0.00 0.00 0.00 21 1008.9
20260503223405 85 206 6.0 14.0 0.00 0.00 0.00 20 1008.9
20260503223305 85 206 6.0 14.0 0.00 0.00 0.00 21 1008.9
20260503223205 85 206 6.0 14.0 0.00 0.00 0.00 20 1009.0
20260503223005 85 203 7.0 15.0 0.00 0.00 0.00 20 1009.1
20260503222904 85 199 7.0 15.0 0.00 0.00 0.00 20 1009.0
20260503222805 85 198 7.0 15.0 0.00 0.00 0.00 21 1009.0
20260503222705 85 199 7.0 15.0 0.00 0.00 0.00 20 1009.0
20260503222605 85 199 7.0 15.0 0.00 0.00 0.00 20 1009.0
20260503222505 85 199 7.0 15.0 0.00 0.00 0.00 21 1009.0
20260503222404 85 199 7.0 22.0 0.00 0.00 0.00 22 1009.0
20260503222305 85 199 7.0 22.0 0.00 0.00 0.00 22 1009.1
20260503222104 85 202 7.0 22.0 0.00 0.00 0.00 21 1009.1
20260503222004 85 205 7.0 22.0 0.00 0.00 0.00 20 1009.0
20260503221905 85 206 7.0 22.0 0.00 0.00 0.00 21 1009.1
20260503221705 85 209 7.0 22.0 0.00 0.00 0.00 21 1009.1
20260503221605 85 207 6.0 22.0 0.00 0.00 0.00 20 1009.1
20260503221505 86 209 6.0 22.0 0.00 0.00 0.00 21 1009.1
20260503221405 86 210 7.0 15.0 0.00 0.00 0.00 21 1009.0
20260503221304 85 211 7.0 15.0 0.00 0.00 0.00 21 1009.0
20260503221104 85 210 8.0 15.0 0.00 0.00 0.00 20 1009.1
20260503221004 85 211 8.0 15.0 0.00 0.00 0.00 21 1009.1
20260503220904 85 210 8.0 15.0 0.00 0.00 0.00 21 1009.1
20260503220804 85 209 8.0 15.0 0.00 0.00 0.00 20 1009.1
20260503220704 85 210 8.0 15.0 0.00 0.00 0.00 21 1009.2
20260503220605 85 211 8.0 17.0 0.00 0.00 0.00 21 1009.2
20260503220505 85 210 8.0 17.0 0.00 0.00 0.00 20 1009.1
20260503220405 85 211 8.0 17.0 0.00 0.00 0.00 20 1009.2
20260503220205 86 210 7.0 20.0 0.00 0.00 0.00 20 1009.2
20260503220105 86 210 7.0 20.0 0.00 0.00 0.00 21 1009.2
20260503220004 86 209 7.0 20.0 0.00 0.00 0.00 21 1009.1
20260503215904 86 212 7.0 20.0 0.00 0.00 0.00 21 1009.0
20260503215804 86 214 6.0 20.0 0.00 0.00 0.00 21 1009.1
20260503215704 86 216 6.0 20.0 0.00 0.00 0.00 20 1009.1
20260503215604 86 220 6.0 20.0 0.00 0.00 0.00 20 1009.0
20260503215505 86 221 6.0 20.0 0.00 0.00 0.00 22 1009.2
20260503215405 86 220 6.0 20.0 0.00 0.00 0.00 21 1009.2
20260503215305 86 220 5.0 20.0 0.00 0.00 0.00 21 1009.2
20260503215205 86 219 5.0 11.0 0.00 0.00 0.00 21 1009.3
20260503215105 86 219 5.0 11.0 0.00 0.00 0.00 21 1009.2
20260503215004 86 219 6.0 11.0 0.00 0.00 0.00 21 1009.3
20260503214904 86 215 6.0 16.0 0.00 0.00 0.00 21 1009.3
20260503214705 86 210 5.0 16.0 0.00 0.00 0.00 21 1009.3
20260503214605 86 207 6.0 16.0 0.00 0.00 0.00 22 1009.3
20260503214305 86 206 6.0 16.0 0.00 0.00 0.00 21 1009.4
20260503214204 86 207 6.0 16.0 0.00 0.00 0.00 21 1009.5
20260503214104 86 208 6.0 16.0 0.00 0.00 0.00 21 1009.5
20260503214004 86 209 5.0 16.0 0.00 0.00 0.00 20 1009.5
20260503213805 86 214 6.0 12.0 0.00 0.00 0.00 21 1009.5
20260503213705 86 216 6.0 14.0 0.00 0.00 0.00 20 1009.4
20260503213605 86 220 6.0 14.0 0.00 0.00 0.00 20 1009.5
20260503213505 86 222 7.0 14.0 0.00 0.00 0.00 19 1009.5
20260503213305 86 226 6.0 15.0 0.00 0.00 0.00 19 1009.6
20260503213204 86 228 7.0 15.0 0.00 0.00 0.00 18 1009.6
20260503213104 86 229 7.0 15.0 0.00 0.00 0.00 18 1009.6
20260503212905 86 230 7.0 21.0 0.00 0.00 0.00 19 1009.7
20260503212805 86 229 8.0 21.0 0.00 0.00 0.00 18 1009.7
20260503212705 86 226 8.0 21.0 0.00 0.00 0.00 18 1009.7
20260503212404 86 216 7.0 21.0 0.00 0.00 0.00 18 1009.7
20260503212305 86 214 8.0 21.0 0.00 0.00 0.00 18 1009.8
20260503212204 86 211 7.0 21.0 0.00 0.00 0.00 19 1009.8
20260503212104 86 208 7.0 21.0 0.00 0.00 0.00 20 1009.8
20260503212005 86 206 6.0 21.0 0.00 0.00 0.00 19 1009.8
20260503211905 86 207 6.0 21.0 0.00 0.00 0.00 20 1009.7
20260503211805 86 208 6.0 21.0 0.00 0.00 0.00 19 1009.7
20260503211705 86 212 6.0 17.0 0.00 0.00 0.00 19 1009.7
20260503211605 86 219 5.0 14.0 0.00 0.00 0.00 18 1009.7
20260503211505 86 221 5.0 14.0 0.00 0.00 0.00 19 1009.8
20260503211404 86 224 5.0 14.0 0.00 0.00 0.00 20 1009.9
20260503211304 86 223 5.0 14.0 0.00 0.00 0.00 19 1009.9
20260503211204 86 221 5.0 14.0 0.00 0.00 0.00 20 1009.9
20260503211105 86 220 5.0 14.0 0.00 0.00 0.00 20 1009.8
20260503211005 86 217 5.0 14.0 0.00 0.00 0.00 20 1009.8
20260503210905 86 216 5.0 14.0 0.00 0.00 0.00 20 1009.9
20260503210805 86 215 6.0 14.0 0.00 0.00 0.00 19 1009.9
20260503210705 86 213 5.0 14.0 0.00 0.00 0.00 20 1009.9
20260503210604 86 212 6.0 13.0 0.00 0.00 0.00 21 1010.0
20260503210504 86 210 6.0 14.0 0.00 0.00 0.00 20 1009.9
20260503210405 86 211 6.0 16.0 0.00 0.00 0.00 19 1010.0
20260503210204 86 210 6.0 16.0 0.00 0.00 0.00 21 1010.0
20260503210105 86 207 7.0 16.0 0.00 0.00 0.00 20 1010.0
20260503210005 86 206 7.0 16.0 0.00 0.00 0.00 20 1009.9
20260503205504 85 195 6.0 16.0 0.00 0.00 0.00 22 1010.1
20260503205304 85 191 6.0 16.0 0.00 0.00 0.00 21 1010.1
20260503205205 85 194 6.0 16.0 0.00 0.00 0.00 20 1010.1
20260503205105 85 200 6.0 16.0 0.00 0.00 0.00 22 1010.1
20260503205005 85 204 6.0 16.0 0.00 0.00 0.00 22 1010.2
20260503204905 85 209 6.0 16.0 0.00 0.00 0.00 21 1010.1
20260503204805 85 207 6.0 16.0 0.00 0.00 0.00 22 1010.2
20260503204705 85 210 6.0 16.0 0.00 0.00 0.00 22 1010.2
20260503204504 85 214 5.0 16.0 0.00 0.00 0.00 24 1010.2
20260503204404 85 223 5.0 15.0 0.00 0.00 0.00 22 1010.3
20260503204305 85 225 5.0 13.0 0.00 0.00 0.00 22 1010.3
20260503204205 85 224 5.0 13.0 0.00 0.00 0.00 22 1010.4
20260503204105 85 221 5.0 13.0 0.00 0.00 0.00 22 1010.4
20260503204005 85 221 5.0 13.0 0.00 0.00 0.00 22 1010.4
20260503203905 85 219 6.0 13.0 0.00 0.00 0.00 22 1010.4
20260503203805 85 218 5.0 13.0 0.00 0.00 0.00 21 1010.4
20260503203704 85 218 6.0 13.0 0.00 0.00 0.00 22 1010.5
20260503203604 85 217 6.0 13.0 0.00 0.00 0.00 22 1010.5
20260503203504 85 214 6.0 14.0 0.00 0.00 0.00 22 1010.6
20260503203405 85 208 7.0 18.0 0.00 0.00 0.00 23 1010.6
20260503203305 85 206 7.0 18.0 0.00 0.00 0.00 21 1010.5
20260503203105 85 204 7.0 18.0 0.00 0.00 0.00 22 1010.6
20260503203005 85 204 7.0 21.0 0.00 0.00 0.00 21 1010.6
20260503202905 85 205 7.0 21.0 0.00 0.00 0.00 21 1010.7
20260503202804 85 206 8.0 21.0 0.00 0.00 0.00 22 1010.7
20260503202604 85 207 8.0 21.0 0.00 0.00 0.00 21 1010.7
20260503202504 85 206 8.0 21.0 0.00 0.00 0.00 21 1010.7
20260503202404 85 205 8.0 21.0 0.00 0.00 0.00 21 1010.7
20260503202305 85 205 7.0 21.0 0.00 0.00 0.00 20 1010.8
20260503202205 85 205 7.0 21.0 0.00 0.00 0.00 21 1010.9
20260503202105 85 204 7.0 21.0 0.00 0.00 0.00 20 1010.8
20260503202005 85 204 7.0 19.0 0.00 0.00 0.00 21 1010.8
20260503201905 85 202 7.0 19.0 0.00 0.00 0.00 21 1010.8
20260503201804 85 201 7.0 19.0 0.00 0.00 0.00 20 1010.8
20260503201605 85 200 7.0 15.0 0.00 0.00 0.00 20 1010.7
20260503201505 85 204 6.0 15.0 0.00 0.00 0.00 19 1010.9
20260503201405 85 208 6.0 15.0 0.00 0.00 0.00 20 1010.9
20260503201305 85 213 6.0 15.0 0.00 0.00 0.00 20 1011.0
20260503201205 85 218 6.0 15.0 0.00 0.00 0.00 20 1011.0
20260503200904 85 228 6.0 14.0 0.00 0.00 0.00 20 1010.9
20260503200804 85 230 5.0 14.0 0.00 0.00 0.00 20 1011.0
20260503200705 85 231 6.0 12.0 0.00 0.00 0.00 20 1010.9
20260503200605 85 235 6.0 12.0 0.00 0.00 0.00 21 1011.1
20260503200505 85 235 6.0 12.0 0.00 0.00 0.00 20 1011.0
20260503200304 85 236 6.0 12.0 0.00 0.00 0.00 20 1011.0
20260503200204 85 232 6.0 11.0 0.00 0.00 0.00 20 1011.0
20260503200104 85 230 6.0 11.0 0.00 0.00 0.00 19 1011.1
20260503200005 85 228 6.0 11.0 0.00 0.00 0.00 20 1011.0
20260503195905 85 228 6.0 11.0 0.00 0.00 0.00 19 1011.1
20260503195805 85 226 6.0 17.0 0.00 0.00 0.00 20 1011.1
20260503195705 85 228 6.0 17.0 0.00 0.00 0.00 20 1011.1
20260503195605 84 229 6.0 17.0 0.00 0.00 0.00 20 1011.1
20260503195505 84 229 6.0 17.0 0.00 0.00 0.00 20 1011.1
20260503195405 84 231 6.0 17.0 0.00 0.00 0.00 19 1011.1
20260503195305 84 229 6.0 17.0 0.00 0.00 0.00 20 1011.1
20260503195205 84 228 6.0 17.0 0.00 0.00 0.00 19 1011.3
20260503195104 84 226 6.0 17.0 0.00 0.00 0.00 19 1011.2
20260503195005 84 224 6.0 17.0 0.00 0.00 0.00 20 1011.2
20260503194805 85 225 5.0 16.0 0.00 0.00 0.00 18 1011.3
20260503194605 85 222 5.0 16.0 0.00 0.00 0.00 20 1011.3
20260503194505 85 217 5.0 16.0 0.00 0.00 0.00 22 1011.3
20260503194405 85 214 5.0 15.0 0.00 0.00 0.00 22 1011.2
20260503194304 85 217 5.0 15.0 0.00 0.00 0.00 22 1011.2
20260503194205 85 222 5.0 15.0 0.00 0.00 0.00 20 1011.2
20260503194104 85 226 5.0 15.0 0.00 0.00 0.00 20 1011.3
20260503194004 85 227 5.0 15.0 0.00 0.00 0.00 21 1011.4
20260503193904 85 228 5.0 15.0 0.00 0.00 0.00 20 1011.4
20260503193805 85 228 5.0 15.0 0.00 0.00 0.00 20 1011.3
20260503193605 85 232 4.0 15.0 0.00 0.00 0.00 21 1011.4
20260503193505 85 238 4.0 15.0 0.00 0.00 0.00 20 1011.4
20260503193404 85 239 4.0 15.0 0.00 0.00 0.00 19 1011.4
20260503193304 85 239 4.0 15.0 0.00 0.00 0.00 20 1011.4
20260503193205 85 236 4.0 13.0 0.00 0.00 0.00 20 1011.4
20260503193104 85 236 4.0 13.0 0.00 0.00 0.00 22 1011.4
20260503193005 85 234 5.0 13.0 0.00 0.00 0.00 20 1011.3
20260503192905 85 235 5.0 13.0 0.00 0.00 0.00 20 1011.4
20260503192805 85 236 5.0 13.0 0.00 0.00 0.00 19 1011.4
20260503192705 85 235 6.0 13.0 0.00 0.00 0.00 19 1011.5
20260503192605 85 233 6.0 14.0 0.00 0.00 0.00 19 1011.5
20260503192504 85 233 6.0 14.0 0.00 0.00 0.00 19 1011.5
20260503192404 85 231 7.0 14.0 0.00 0.00 0.00 21 1011.5
20260503192305 85 228 7.0 14.0 0.00 0.00 0.00 19 1011.5
20260503192204 84 228 6.0 14.0 0.00 0.00 0.00 21 1011.5
20260503192104 84 227 6.0 14.0 0.00 0.00 0.00 20 1011.6
20260503191905 84 228 7.0 14.0 0.00 0.00 0.00 18 1011.6
20260503191805 85 227 7.0 17.0 0.00 0.00 0.00 18 1011.6
20260503191705 85 224 6.0 17.0 0.00 0.00 0.00 20 1011.6
20260503191505 85 222 6.0 17.0 0.00 0.00 0.00 19 1011.5
20260503191405 85 219 5.0 17.0 0.00 0.00 0.00 20 1011.5
20260503191205 85 226 5.0 17.0 0.00 0.00 0.00 20 1011.6
20260503191105 85 226 5.0 17.0 0.00 0.00 0.00 19 1011.7
20260503190904 85 226 5.0 17.0 0.00 0.00 0.00 21 1011.6
20260503190805 85 227 4.0 13.0 0.00 0.00 0.00 21 1011.7
20260503190705 85 227 5.0 13.0 0.00 0.00 0.00 21 1011.7
20260503190604 85 229 5.0 13.0 0.00 0.00 0.00 22 1011.6
20260503190504 85 231 5.0 13.0 0.00 0.00 0.00 23 1011.6
20260503190204 85 224 5.0 18.0 0.00 0.00 0.00 21 1011.6
20260503190104 84 224 5.0 18.0 0.00 0.00 0.00 21 1011.7
20260503190004 84 223 6.0 18.0 0.00 0.00 0.00 23 1011.7
20260503185904 84 220 6.0 18.0 0.00 0.00 0.00 21 1011.7
20260503185705 84 213 6.0 18.0 0.00 0.00 0.00 21 1011.8
20260503185605 84 207 6.0 18.0 0.00 0.00 0.00 24 1011.8
20260503185405 84 208 6.0 18.0 0.00 0.00 0.00 22 1011.8
20260503185305 84 205 6.0 18.0 0.00 0.00 0.00 23 1011.7
20260503185104 84 200 6.0 18.0 0.00 0.00 0.00 23 1011.9
20260503185004 84 197 7.0 18.0 0.00 0.00 0.00 22 1011.9
20260503184904 84 197 6.0 18.0 0.00 0.00 0.00 22 1011.8
20260503184805 84 198 6.0 18.0 0.00 0.00 0.00 22 1011.8
20260503184705 84 199 6.0 15.0 0.00 0.00 0.00 23 1012.0
20260503184605 84 197 6.0 15.0 0.00 0.00 0.00 23 1012.0
20260503184404 84 194 6.0 15.0 0.00 0.00 0.00 23 1012.0
20260503184304 84 195 6.0 15.0 0.00 0.00 0.00 23 1012.0
20260503184204 84 200 6.0 15.0 0.00 0.00 0.00 22 1012.0
20260503184104 84 201 5.0 15.0 0.00 0.00 0.00 22 1012.0
20260503184005 84 205 5.0 15.0 0.00 0.00 0.00 22 1012.1
20260503183905 84 207 5.0 11.0 0.00 0.00 0.00 22 1012.0
20260503183805 84 212 5.0 11.0 0.00 0.00 0.00 21 1012.0
20260503183605 83 219 5.0 13.0 0.00 0.00 0.00 23 1012.1
20260503183505 83 221 5.0 13.0 0.00 0.00 0.00 22 1012.1
20260503183404 83 220 5.0 13.0 0.00 0.00 0.00 21 1012.2
20260503183204 83 219 5.0 13.0 0.00 0.00 0.00 23 1012.2
20260503183004 83 220 6.0 15.0 0.00 0.00 0.00 22 1012.3
20260503182904 83 223 6.0 15.0 0.00 0.00 0.00 22 1012.3
20260503182804 83 219 6.0 15.0 0.00 0.00 0.00 22 1012.4
20260503182704 83 222 6.0 15.0 0.00 0.00 0.00 21 1012.3
20260503182605 83 224 7.0 15.0 0.00 0.00 0.00 21 1012.4
20260503182505 83 225 6.0 15.0 0.00 0.00 0.00 21 1012.4
20260503182305 83 230 7.0 15.0 0.00 0.00 0.00 21 1012.6
20260503182104 83 227 7.0 15.0 0.00 0.00 0.00 20 1012.5
20260503182005 83 225 8.0 16.0 0.00 0.00 0.00 21 1012.5
20260503181904 83 221 8.0 17.0 0.00 0.00 0.00 21 1012.5
20260503181804 83 223 8.0 17.0 0.00 0.00 0.00 20 1012.5
20260503181705 83 219 8.0 19.0 0.00 0.00 0.00 20 1012.5
20260503181505 83 215 8.0 19.0 0.00 0.00 0.00 20 1012.6
20260503181405 83 213 8.0 19.0 0.00 0.00 0.00 21 1012.6
20260503181304 83 209 8.0 19.0 0.00 0.00 0.00 21 1012.6
20260503181205 83 209 8.0 19.0 0.00 0.00 0.00 20 1012.6
20260503181104 83 212 7.0 19.0 0.00 0.00 0.00 21 1012.6
20260503181005 83 212 7.0 19.0 0.00 0.00 0.00 21 1012.6
20260503180904 83 211 7.0 19.0 0.00 0.00 0.00 21 1012.6
20260503180804 83 205 7.0 19.0 0.00 0.00 0.00 22 1012.7
20260503180704 83 204 7.0 17.0 0.00 0.00 0.00 22 1012.7
20260503180604 83 204 7.0 17.0 0.00 0.00 0.00 21 1012.7
20260503180504 83 208 7.0 17.0 0.00 0.00 0.00 21 1012.6
20260503180405 83 210 6.0 17.0 0.00 0.00 0.00 22 1012.6
20260503180305 83 215 6.0 16.0 0.00 0.00 0.00 22 1012.7
20260503180205 83 213 6.0 16.0 0.00 0.00 0.00 21 1012.7
20260503180104 82 211 6.0 16.0 0.00 0.00 0.00 22 1012.7
20260503180005 82 212 6.0 16.0 0.00 0.00 0.00 22 1012.7
20260503175904 82 211 6.0 16.0 0.00 0.00 0.00 21 1012.7
20260503175805 83 218 7.0 18.0 0.00 0.00 0.00 22 1012.7
20260503175705 82 221 7.0 19.0 0.00 0.00 0.00 24 1012.7
20260503175605 82 223 7.0 19.0 0.00 0.00 0.00 22 1012.8
20260503175504 82 223 7.0 19.0 0.00 0.00 0.00 22 1012.7
20260503175404 82 222 7.0 19.0 0.00 0.00 0.00 22 1012.8
20260503175305 82 219 6.0 19.0 0.00 0.00 0.00 22 1012.8
20260503175004 82 224 6.0 19.0 0.00 0.00 0.00 22 1013.0
20260503174904 82 228 6.0 19.0 0.00 0.00 0.00 21 1013.0
20260503174805 82 227 6.0 19.0 0.00 0.00 0.00 21 1013.0
20260503174705 82 227 5.0 19.0 0.00 0.00 0.00 22 1013.0
20260503174605 82 227 6.0 15.0 0.00 0.00 0.00 25 1013.0
20260503174504 82 222 6.0 15.0 0.00 0.00 0.00 26 1013.1
20260503174405 82 219 6.0 15.0 0.00 0.00 0.00 26 1013.1
20260503174304 82 221 6.0 15.0 0.00 0.00 0.00 25 1013.2
20260503174204 82 221 6.0 15.0 0.00 0.00 0.00 23 1013.1
20260503174104 82 216 6.0 15.0 0.00 0.00 0.00 24 1013.1
20260503174005 82 212 5.0 15.0 0.00 0.00 0.00 25 1013.2
20260503173905 82 209 5.0 15.0 0.00 0.00 0.00 25 1013.2
20260503173805 82 210 5.0 15.0 0.00 0.00 0.00 24 1013.3
20260503173705 82 211 5.0 12.0 0.00 0.00 0.00 26 1013.2
20260503173505 82 210 5.0 12.0 0.00 0.00 0.00 28 1013.3
20260503173405 82 212 5.0 12.0 0.00 0.00 0.00 26 1013.3
20260503173304 82 211 5.0 13.0 0.00 0.00 0.00 27 1013.3
20260503173104 82 212 5.0 13.0 0.00 0.00 0.00 26 1013.4
20260503172805 81 210 5.0 15.0 0.00 0.00 0.00 27 1013.4
20260503172705 81 207 5.0 15.0 0.00 0.00 0.00 27 1013.5
20260503172505 81 212 4.0 15.0 0.00 0.00 0.00 27 1013.5
20260503172305 81 217 4.0 15.0 0.00 0.00 0.00 29 1013.6
20260503172204 80 219 4.0 15.0 0.00 0.00 0.00 29 1013.5
20260503172005 80 212 4.0 10.0 0.00 0.00 0.00 32 1013.6
20260503171905 80 211 4.0 10.0 0.00 0.00 0.00 32 1013.6
20260503171805 80 213 4.0 10.0 0.00 0.00 0.00 31 1013.6
20260503171704 80 213 4.0 10.0 0.00 0.00 0.00 31 1013.7
20260503171605 80 208 4.0 10.0 0.00 0.00 0.00 32 1013.7
20260503171504 80 205 4.0 10.0 0.00 0.00 0.00 33 1013.7
20260503171304 79 202 4.0 10.0 0.00 0.00 0.00 31 1013.7
20260503171104 79 201 3.0 8.0 0.00 0.00 0.00 33 1013.7
20260503170904 79 209 3.0 7.0 0.00 0.00 0.00 32 1013.9
20260503170705 79 209 3.0 10.0 0.00 0.00 0.00 35 1013.9
20260503170604 79 215 3.0 10.0 0.00 0.00 0.00 33 1013.9
20260503170504 79 218 3.0 10.0 0.00 0.00 0.00 33 1013.9
20260503170305 79 224 3.0 10.0 0.00 0.00 0.00 32 1013.9
20260503170205 79 227 3.0 10.0 0.00 0.00 0.00 33 1013.9
20260503160204 70 196 4.0 10.0 0.00 0.00 0.00 47 1014.6
20260503160104 70 195 4.0 10.0 0.00 0.00 0.00 45 1014.5
20260503151004 65 199 4.0 9.0 0.00 0.00 0.00 52 1015.2
20260503150904 65 200 4.0 9.0 0.00 0.00 0.00 52 1015.2
20260503150604 65 204 4.0 9.0 0.00 0.00 0.00 54 1015.2
20260503150405 65 198 4.0 9.0 0.00 0.00 0.00 54 1015.2
20260503150304 65 195 4.0 9.0 0.00 0.00 0.00 53 1015.2
20260503150205 65 189 4.0 9.0 0.00 0.00 0.00 54 1015.2
20260503150105 64 186 4.0 9.0 0.00 0.00 0.00 54 1015.2
20260503140204 57 185 5.0 12.0 0.00 0.00 0.00 67 1015.4
20260503140105 57 186 5.0 12.0 0.00 0.00 0.00 67 1015.5
20260503131404 52 187 3.0 9.0 0.00 0.00 0.00 73 1015.7
20260503131304 52 188 3.0 9.0 0.00 0.00 0.00 73 1015.6
20260503131204 52 188 3.0 9.0 0.00 0.00 0.00 73 1015.6
20260503131104 51 188 3.0 9.0 0.00 0.00 0.00 73 1015.7
20260503131004 51 186 3.0 9.0 0.00 0.00 0.00 73 1015.7
20260503130904 51 186 3.0 9.0 0.00 0.00 0.00 72 1015.7
20260503130804 51 186 3.0 9.0 0.00 0.00 0.00 72 1015.6
20260503130704 51 187 3.0 9.0 0.00 0.00 0.00 72 1015.7
20260503130604 51 187 3.0 9.0 0.00 0.00 0.00 72 1015.7
20260503130504 51 185 3.0 8.0 0.00 0.00 0.00 73 1015.7
20260503130404 51 184 3.0 8.0 0.00 0.00 0.00 73 1015.6
20260503130204 51 181 3.0 8.0 0.00 0.00 0.00 73 1015.6
20260503130104 51 182 3.0 8.0 0.00 0.00 0.00 73 1015.7
20260503120204 47 158 1.0 4.0 0.00 0.00 0.00 78 1015.4
20260503120105 47 158 1.0 4.0 0.00 0.00 0.00 78 1015.3
20260503110704 48 168 1.0 5.0 0.00 0.00 0.00 74 1015.5
20260503110604 48 166 1.0 5.0 0.00 0.00 0.00 74 1015.5
20260503110504 48 166 1.0 5.0 0.00 0.00 0.00 74 1015.5
20260503110405 48 165 1.0 5.0 0.00 0.00 0.00 74 1015.5
20260503110204 48 166 1.0 5.0 0.00 0.00 0.00 74 1015.5
20260503100204 50 163 1.0 5.0 0.00 0.00 0.00 69 1016.0
20260503090504 51 161 1.0 5.0 0.00 0.00 0.00 65 1016.5
20260503090404 51 164 1.0 5.0 0.00 0.01 0.00 64 1016.5
20260503090204 51 166 1.0 5.0 0.00 0.01 0.00 64 1016.5
20260503090104 51 166 1.0 5.0 0.00 0.01 0.00 64 1016.6